Weather in Maginsk

Russia / Republic of Bashkortostan     55°45′43″N   56°57′56″E
temp.,
°C
wind,
m/s
gust,
m/s
humid.,
%
clouds,
%
prec.,
mm/h
press.,
hPa
HPBL,
m
1 march, mon
mon123:00−13ene369591 0.2 1009249
02:00−15ene259684 0.1 1011154
05:00−15ne239785 0.3 1012104
08:00−16ene239688 0.2 101485
11:00−12e119289 0.3 1015250
14:00−8w1186100 0.2 1015557
17:00−10w3493100 0.4 1016356
20:00−15wsw229895 0.1 101772
2 march, tue
tue223:00−18sw129997 0.2 101723
02:00−19sw2699100 0.1 1016194
05:00−20ssw31098100 0.1 1015277
08:00−20ssw41296100 0.0 1013363
11:00−16s51392100 0.0 1010394
14:00−13ssw61491100 0.1 1006507
17:00−13ssw61391100 0.5 1004586
20:00−13ssw61590100 0.2 1002592
3 march, wed
wed323:00−11ssw61689100 0.4 1001540
02:00−9ssw6148897 0.1 998519
05:00−7ssw5139198 0.1 997455
08:00−4sw499498 0.2 996621
11:00−5wsw5109399 0.6 997583
14:00−4wsw4893100 0.4 997722
17:00−4wsw4894100 0.8 998660
20:00−6sw4995100 0.5 999463
4 march, thu
thu423:00−7sw3995100 0.8 1000432
02:00−6w41095100 0.9 1000623
05:00−9w4895100 1.5 1001359
08:00−13w3796100 0.3 1002253
11:00−10wsw4794100 0.6 1003397
14:00−7wsw4890100 0.2 1003722
17:00−7sw51091100 0.5 1003683
20:00−8ssw51292100 0.1 1002579
5 march, fri
fri523:00−8ssw61393100 0.6 1001708
02:00−7ssw71592100 1.2 997906
05:00−4ssw71694100 2.9 9941125
08:00−2sw81794100 3.1 9911328
11:00−2wsw91793100 4.7 9921421
14:00−6w8148889 1.1 9961161
17:00−7w7129294 1.5 10031050
20:00−8w51093100 0.5 1007897